Luxeuil, France

9:46 AM CEST on March 28, 2017 (GMT +0200)
Saint Sauveur Air Base

Weather History for LFSX - March, 2014

Change the Weather History Date:

Monday, March 24, 2014

  Actual Average Record
Temperature  
Mean Temperature 40 °F -  
Max Temperature 47 °F 57 °F 69 °F (2012)
Min Temperature 32 °F 37 °F 21 °F (2008)
Degree Days  
Heating Degree Days 25    
Moisture  
Dew Point 34 °F    
Average Humidity 81    
Maximum Humidity 95    
Minimum Humidity 49    
Precipitation  
Precipitation 0.08 in - - ()
Sea Level Pressure  
Sea Level Pressure 29.92 in    
Wind  
Wind Speed 3 mph ()    
Max Wind Speed 12 mph    
Max Gust Speed -    
Visibility 7.0 miles    
Events Rain    
Averages and records for this station are not official NWS values.
T = Trace of Precipitation, MM = Missing Value Source: Averaged Metar Reports

Daily Weather History Graph

Daily Weather History Graph

Search for Another Location

Airport or City:

Trip Planner

Search our weather history database for the weather conditions in past years. The results will help you decide how hot, cold, wet, or windy it might be!

Date:

Astronomy

Mar. 24, 2014 Rise Set
Actual Time 6:29 AM CET 6:52 PM CET
Civil Twilight 5:58 AM CET 7:23 PM CET
Nautical Twilight 5:22 AM CET 8:00 PM CET
Astronomical Twilight 4:44 AM CET 8:38 PM CET
Moon 2:09 AM CET (3/24) 11:37 AM CET (3/24)
Length of Visible Light 13h 24m
Length of Day
12h 22m
Last Quarter, 46% of the Moon is Illuminated
Mar 24
Last Quarter
Mar 30
New
Apr 7
First Quarter
Apr 15
Full
Apr 22
Last Quarter

Hourly Weather History & Observations

Time (CET) Temp. Windchill Dew Point Humidity Pressure Visibility Wind Dir Wind Speed Gust Speed Precip Events Conditions
12:00 AM 36 °F - 33 °F 85% 29.92 in 9 mi Calm Calm - -   Clear
12:00 AM 37.4 °F - 33.8 °F 87% 29.86 in 6.2 mi Calm Calm - N/A   Mostly Cloudy
12:30 AM 35.6 °F - 33.8 °F 93% 29.86 in 6.2 mi Calm Calm - N/A   Overcast
1:00 AM 37 °F - 33 °F 81% 29.92 in 8 mi Calm Calm - -   Clear
1:00 AM 37.4 °F - 33.8 °F 87% 29.86 in 6.2 mi Calm Calm - N/A   Overcast
1:30 AM 37.4 °F - 33.8 °F 87% 29.86 in 6.2 mi Calm Calm - N/A   Overcast
2:00 AM 36 °F - 34 °F 90% 29.92 in 11 mi Calm Calm - -   Clear
2:00 AM 35.6 °F - 33.8 °F 93% 29.89 in 6.2 mi Calm Calm - N/A   Overcast
2:30 AM 37.4 °F - 35.6 °F 93% 29.89 in 6.2 mi Calm Calm - N/A   Overcast
3:00 AM 37 °F - 34 °F 86% 29.91 in 12 mi Calm Calm - -   Clear
3:00 AM 37.4 °F - 33.8 °F 87% 29.86 in 6.2 mi Calm Calm - N/A   Overcast
3:30 AM 37.4 °F - 35.6 °F 93% 29.86 in 6.2 mi Calm Calm - N/A   Overcast
4:00 AM 38 °F - 35 °F 84% 29.92 in 25 mi Calm Calm - -   Clear
4:00 AM 37.4 °F - 35.6 °F 93% 29.89 in 6.2 mi Calm Calm - N/A   Overcast
4:30 AM 37.4 °F - 35.6 °F 93% 29.89 in 6.2 mi West 2.3 mph - N/A   Overcast
5:00 AM 38 °F - 36 °F 87% 29.93 in 25 mi WNW 3.5 mph - -   Clear
5:00 AM 37.4 °F 34.9 °F 35.6 °F 93% 29.89 in 6.2 mi WNW 3.5 mph - N/A   Overcast
5:30 AM 37.4 °F 34.9 °F 35.6 °F 93% 29.89 in 6.2 mi Variable 3.5 mph - N/A   Overcast
6:00 AM 38 °F - 36 °F 87% 29.94 in 12 mi West 3.5 mph - -   Clear
6:00 AM 37.4 °F 34.9 °F 35.6 °F 93% 29.89 in 6.2 mi West 3.5 mph - N/A   Overcast
6:30 AM 39.2 °F 35.9 °F 35.6 °F 87% 29.89 in 6.2 mi West 4.6 mph - N/A   Overcast
7:00 AM 38 °F - 35 °F 87% 29.96 in 5 mi WNW 6.9 mph - - Rain Light Rain
7:00 AM 37.4 °F 32.1 °F 35.6 °F 93% 29.92 in 5.0 mi WNW 6.9 mph - N/A Rain Light Rain
7:30 AM 37.4 °F 32.8 °F 35.6 °F 93% 29.92 in 6.2 mi WNW 5.8 mph - N/A   Overcast
8:00 AM 38 °F - 35 °F 87% 29.97 in 10 mi WNW 5.8 mph - -   Clear
8:00 AM 37.4 °F 32.8 °F 35.6 °F 93% 29.92 in 6.2 mi WNW 5.8 mph - N/A   Overcast
8:30 AM 39.2 °F 35.0 °F 35.6 °F 87% 29.95 in 6.2 mi West 5.8 mph - N/A   Overcast
9:00 AM 40 °F - 36 °F 79% 29.98 in 11 mi WNW 6.9 mph - -   Clear
9:00 AM 39.2 °F 34.2 °F 35.6 °F 87% 29.95 in 6.2 mi WNW 6.9 mph - N/A   Overcast
9:30 AM 41.0 °F 37.1 °F 35.6 °F 81% 29.95 in 6.2 mi NW 5.8 mph - N/A   Overcast
10:00 AM 42 °F - 34 °F 65% 29.98 in 12 mi NW 6.9 mph - -   Clear
10:00 AM 42.8 °F 38.6 °F 33.8 °F 70% 29.95 in 6.2 mi NW 6.9 mph - N/A   Overcast
10:30 AM 42.8 °F 38.0 °F 33.8 °F 70% 29.95 in 6.2 mi WNW 8.1 mph - N/A Rain Light Rain
11:00 AM 40 °F - 34 °F 73% 29.99 in 9 mi NW 5.8 mph - - Rain Light Rain
11:00 AM 41.0 °F 37.1 °F 33.8 °F 76% 29.95 in 6.2 mi NW 5.8 mph - N/A Rain Light Rain
11:30 AM 39.2 °F 37.0 °F 33.8 °F 81% 29.95 in 1.4 mi NE 3.5 mph - N/A Rain Rain
12:00 PM 39 °F - 36 °F 84% 29.99 in 8 mi North 1.2 mph - - Rain Light Rain
12:00 PM 39.2 °F - 35.6 °F 87% 29.95 in 6.2 mi Calm Calm - N/A Rain Light Rain
12:30 PM 41.0 °F 35.8 °F 37.4 °F 87% 29.95 in 6.2 mi WNW 8.1 mph - N/A   Mostly Cloudy
1:00 PM 41 °F - 38 °F 84% 29.97 in 6 mi West 9.2 mph - -   Clear
1:00 PM 41.0 °F 35.2 °F 37.4 °F 87% 29.95 in 6.2 mi West 9.2 mph - N/A   Mostly Cloudy
1:30 PM 42.8 °F 38.0 °F 37.4 °F 81% 29.92 in 6.2 mi WSW 8.1 mph - N/A   Overcast
2:00 PM 45 °F - 38 °F 67% 29.95 in 10 mi NW 4.6 mph - -   Clear
2:00 PM 44.6 °F 42.2 °F 37.4 °F 76% 29.92 in 6.2 mi Variable 4.6 mph - N/A   Mostly Cloudy
2:30 PM 42.8 °F 37.5 °F 32.0 °F 66% 29.92 in 6.2 mi NW 9.2 mph - N/A   Mostly Cloudy
3:00 PM 44 °F - 31 °F 50% 29.94 in 34 mi North 3.5 mph - -   Clear
3:00 PM 44.6 °F 43.1 °F 32.0 °F 61% 29.92 in 6.2 mi Variable 3.5 mph - N/A   Unknown
3:30 PM 46.4 °F 45.2 °F 32.0 °F 57% 29.89 in 6.2 mi Variable 3.5 mph - N/A   Scattered Clouds
4:00 PM 45 °F - 33 °F 50% 29.92 in 34 mi WNW 5.8 mph - -   Clear
4:00 PM 44.6 °F 41.4 °F 32.0 °F 61% 29.89 in 6.2 mi WNW 5.8 mph - N/A   Mostly Cloudy
4:30 PM 42.8 °F 36.6 °F 33.8 °F 70% 29.89 in 6.2 mi West 11.5 mph - N/A   Mostly Cloudy
5:00 PM 45 °F - 32 °F 49% 29.92 in 12 mi South 3.5 mph - -   Clear
5:00 PM 44.6 °F 43.1 °F 32.0 °F 61% 29.89 in 6.2 mi Variable 3.5 mph - N/A   Mostly Cloudy
5:30 PM 48.2 °F - 32.0 °F 54% 29.89 in 6.2 mi Variable 2.3 mph - N/A   Unknown
6:00 PM 44 °F - 33 °F 54% 29.92 in 31 mi WSW 3.5 mph - -   Clear
6:00 PM 44.6 °F 43.1 °F 33.8 °F 66% 29.89 in 6.2 mi WSW 3.5 mph - N/A   Unknown
6:30 PM 42.8 °F 41.1 °F 33.8 °F 70% 29.89 in 6.2 mi Variable 3.5 mph - N/A   Scattered Clouds
7:00 PM 41 °F - 35 °F 71% 29.94 in 22 mi SE 6.9 mph - -   Clear
7:00 PM 41.0 °F 36.4 °F 35.6 °F 81% 29.89 in 6.2 mi SE 6.9 mph - N/A   Mostly Cloudy
7:30 PM 39.2 °F 37.0 °F 35.6 °F 87% 29.92 in 6.2 mi Variable 3.5 mph - N/A   Overcast
8:00 PM 38 °F - 34 °F 81% 29.96 in 12 mi SE 5.8 mph - -   Clear
8:00 PM 37.4 °F 32.8 °F 33.8 °F 87% 29.92 in 6.2 mi SE 5.8 mph - N/A   Overcast
8:30 PM 35.6 °F 29.9 °F 33.8 °F 93% 29.92 in 6.2 mi East 6.9 mph - N/A   Unknown
9:00 PM 36 °F - 33 °F 87% 29.97 in 12 mi East 4.6 mph - -   Clear
9:00 PM 35.6 °F 31.7 °F 33.8 °F 93% 29.92 in 6.2 mi East 4.6 mph - N/A   Unknown
9:30 PM 33.8 °F 29.6 °F 32.0 °F 93% 29.92 in 6.2 mi ESE 4.6 mph - N/A   Unknown
10:00 PM 33 °F - 32 °F 95% 29.98 in 7 mi East 3.5 mph - -   Clear
10:00 PM 33.8 °F 30.8 °F 32.0 °F 93% 29.92 in 6.2 mi East 3.5 mph - N/A   Unknown
10:30 PM 33.8 °F 29.6 °F 32.0 °F 93% 29.92 in 6.2 mi East 4.6 mph - N/A   Unknown
11:00 PM 33 °F - 31 °F 92% 29.98 in 6 mi ENE 4.6 mph - -   Clear
11:00 PM 33.8 °F 29.6 °F 32.0 °F 93% 29.92 in 5.6 mi ENE 4.6 mph - N/A   Unknown
11:30 PM 32.0 °F 27.5 °F 30.2 °F 93% 29.92 in 3.7 mi East 4.6 mph - N/A   Unknown